Detroit, MI

7:58 AM EDT on July 29, 2017 (GMT -0400)
Detroit City

Weather History for KDET - December, 2011

Change the Weather History Date:

Saturday, December 10, 2011

  Actual Average Record
Temperature  
Mean Temperature 22 °F -  
Max Temperature 28 °F 36 °F 66 °F (1971)
Min Temperature 17 °F 25 °F 4 °F (1977)
Degree Days  
Heating Degree Days 42    
Moisture  
Dew Point 12 °F    
Average Humidity 65    
Maximum Humidity 86    
Minimum Humidity 48    
Precipitation  
Precipitation 0.00 in - - ()
Sea Level Pressure  
Sea Level Pressure 30.46 in    
Wind  
Wind Speed 6 mph (WSW)    
Max Wind Speed 12 mph    
Max Gust Speed -    
Visibility 10 miles    
Events      
Averages and records for this station are not official NWS values.
T = Trace of Precipitation, MM = Missing Value Source: NWS Daily Summary

Daily Weather History Graph

Daily Weather History Graph

Search for Another Location

Airport or City:

Trip Planner

Search our weather history database for the weather conditions in past years. The results will help you decide how hot, cold, wet, or windy it might be!

Date:

Astronomy

Dec. 10, 2011 Rise Set
Actual Time 7:50 AM EST 4:59 PM EST
Civil Twilight 7:18 AM EST 5:31 PM EST
Nautical Twilight 6:43 AM EST 6:06 PM EST
Astronomical Twilight 6:08 AM EST 6:40 PM EST
Moon 5:11 PM EST (12/10) 7:49 AM EST (12/10)
Length of Visible Light 10h 12m
Length of Day
9h 08m
Full, 100% of the Moon is Illuminated
Dec 10
Full
Dec 17
Last Quarter
Dec 24
New
Jan 1
First Quarter
Jan 9
Full

Hourly Weather History & Observations

Time (EST) Temp. Windchill Dew Point Humidity Pressure Visibility Wind Dir Wind Speed Gust Speed Precip Events Conditions
12:53 AM 21.0 °F 13.4 °F 14.0 °F 74% 30.39 in 10.0 mi West 5.8 mph - N/A   Clear
1:53 AM 21.0 °F 16.2 °F 14.0 °F 74% 30.38 in 10.0 mi WSW 3.5 mph - N/A   Clear
2:53 AM 19.4 °F 12.8 °F 15.8 °F 86% 30.36 in 10.0 mi WSW 4.6 mph - N/A   Clear
3:53 AM 19.9 °F 14.9 °F 15.1 °F 81% 30.42 in 10.0 mi West 3.5 mph - N/A   Clear
4:53 AM 19.0 °F 13.9 °F 15.1 °F 85% 30.41 in 10.0 mi WSW 3.5 mph - N/A   Clear
5:53 AM 19.0 °F 13.9 °F 14.0 °F 81% 30.42 in 10.0 mi WSW 3.5 mph - N/A   Clear
6:53 AM 18.0 °F 9.8 °F 14.0 °F 84% 30.44 in 9.0 mi WSW 5.8 mph - N/A   Clear
7:53 AM 17.6 °F 9.3 °F 14.0 °F 86% 30.42 in 8.0 mi WSW 5.8 mph - N/A   Clear
8:53 AM 19.9 °F 12.1 °F 14.0 °F 78% 30.47 in 9.0 mi West 5.8 mph - N/A   Clear
9:53 AM 21.9 °F 13.4 °F 14.0 °F 72% 30.49 in 10.0 mi West 6.9 mph - N/A   Clear
10:53 AM 24.1 °F 16.0 °F 15.1 °F 69% 30.51 in 10.0 mi WSW 6.9 mph - N/A   Clear
11:53 AM 26.1 °F 15.6 °F 14.0 °F 60% 30.49 in 10.0 mi WSW 11.5 mph - N/A   Clear
12:53 PM 27.0 °F 17.3 °F 15.1 °F 61% 30.47 in 10.0 mi WSW 10.4 mph - N/A   Partly Cloudy
1:53 PM 28.9 °F 20.4 °F 14.0 °F 54% 30.48 in 10.0 mi West 9.2 mph - N/A   Partly Cloudy
2:53 PM 28.0 °F 18.1 °F 12.9 °F 53% 30.45 in 10.0 mi WSW 11.5 mph - N/A   Clear
3:53 PM 28.0 °F 19.3 °F 12.9 °F 53% 30.45 in 10.0 mi WSW 9.2 mph - N/A   Clear
4:53 PM 27.0 °F 18.7 °F 12.0 °F 53% 30.46 in 10.0 mi WSW 8.1 mph - N/A   Clear
5:53 PM 26.1 °F 16.8 °F 12.0 °F 55% 30.48 in 10.0 mi WSW 9.2 mph - N/A   Clear
6:53 PM 25.0 °F 15.5 °F 10.9 °F 55% 30.48 in 10.0 mi SW 9.2 mph - N/A   Clear
7:53 PM 24.1 °F 13.7 °F 7.0 °F 48% 30.49 in 10.0 mi WSW 10.4 mph - N/A   Clear
8:53 PM 23.0 °F 13.9 °F 6.1 °F 48% 30.49 in 10.0 mi WSW 8.1 mph - N/A   Clear
9:53 PM 21.9 °F 11.0 °F 5.0 °F 48% 30.50 in 10.0 mi WSW 10.4 mph - N/A   Clear
10:53 PM 21.9 °F 11.7 °F 6.1 °F 51% 30.51 in 10.0 mi WSW 9.2 mph - N/A   Clear
11:53 PM 21.0 °F 11.4 °F 7.0 °F 55% 30.51 in 10.0 mi SW 8.1 mph - N/A   Mostly Cloudy